カタログに戻る

DELTA 1 DEB

運用中UNKNOWN
NORAD 10762·DEBRIS·🇺🇸 United States

打ち上げ Jul 29, 1976 から Vandenberg Space Force Base

Loading…

次のパス (今後24時間)

TLE

最新Source: Space-Track

元期: Sep 14, 2026, 10:12 UTC

1 10762U 76077BK  26257.42525540 -.00000591  00000-0 -54687-2 0  9991
2 10762 102.6433 326.5490 0673250 176.0189 184.6572 11.70146932605144

AllMySatでDELTA 1 DEBをリアルタイム追跡

Download on the App Store